[[{"header":{"parameterUnit":"m.s-1","parameterCategory":1,"la1":30.2991,"la2":30.254,"lo1":-89.0895,"lo2":-89.0444,"dy":0.0017,"dx":0.0017,"nx":28,"ny":28,"refTime":"2024-04-25T09:00:00:Z","depth":0,"parameterNumber":2,"parameterNumberName":"U-component_of_WINDS"},"data":[0,0,0,0,0,0,0,0,0,0,0,0,0,0,0,0,0,0,0,0,0,0,0,0,0,0,0,0,0,0,0,0,0,0,0,0,0,0,0,0,0,0,0,0,0,0,0,0,0,0,0,0,0,0,0,0,0,0,-0.2437,-0.2436,0,-0.2348,-0.2347,-0.2346,-0.2303,-0.2303,-0.2303,-0.2303,-0.2211,-0.2208,-0.2206,0,0,0,0,0,0,0,0,0,0,0,0,0,-0.2569,-0.2567,-0.2437,-0.2436,-0.2434,-0.2348,-0.2347,-0.2346,-0.2303,-0.2303,-0.2303,-0.2303,-0.2212,-0.2209,-0.2206,0,0,0,0,0,0,0,0,0,0,0,0,0,-0.2499,-0.2567,-0.2437,-0.2403,-0.2399,-0.2348,-0.2347,-0.2345,-0.2303,-0.2303,-0.2303,-0.2303,-0.2213,-0.2209,-0.2205,-0.2182,0,0,-0.2194,-0.2192,0,0,0,0,0,0,0,0,-0.2503,-0.2495,-0.2409,-0.2405,-0.24,-0.2336,-0.236,-0.2291,-0.2303,-0.2339,-0.2303,-0.2303,-0.2253,-0.2246,-0.2229,-0.2178,-0.2174,-0.2194,-0.2191,-0.219,-0.2189,0,0,0,0,0,0,0,-0.2508,-0.2498,-0.2401,-0.2408,-0.2402,-0.2392,-0.2382,-0.2347,-0.2297,-0.2336,-0.2333,-0.2323,-0.225,-0.2233,-0.2226,-0.2172,-0.2194,-0.2191,-0.2188,-0.2187,-0.2099,-0.2099,0,0,0,0,0,0,-0.2519,-0.2502,-0.2404,-0.2399,-0.2453,-0.239,-0.2378,-0.2357,-0.2297,-0.2288,-0.2323,-0.2321,-0.2239,-0.2231,-0.2223,-0.2193,-0.219,-0.2186,-0.2184,-0.21,-0.2099,-0.2099,0,0,0,0,0,0,-0.2522,-0.251,-0.2408,-0.245,-0.2436,-0.2387,-0.2363,-0.2355,-0.2337,-0.2287,-0.2278,-0.2314,-0.2238,-0.2228,-0.2193,-0.2189,-0.2185,-0.2181,-0.21,-0.2099,-0.2099,-0.2131,0,0,0,0,0,0,-0.2526,-0.2512,-0.2502,-0.245,-0.2434,-0.2379,-0.2363,-0.2353,-0.2331,-0.2328,-0.2276,-0.2268,-0.2238,-0.2199,-0.2189,-0.2184,-0.2179,-0.21,-0.21,-0.2099,-0.213,-0.2132,-0.2134,0,0,0,0,0,-0.2531,-0.2514,-0.2502,-0.249,-0.2421,-0.2379,-0.237,-0.2336,-0.2331,-0.2321,-0.2289,-0.2269,-0.2191,-0.2196,-0.2185,-0.2178,-0.21,-0.21,-0.2099,-0.213,-0.2132,-0.2134,0,0,0,0,0,0,-0.2566,-0.2506,-0.2492,-0.2458,-0.2424,-0.2372,-0.2358,-0.2339,-0.2306,-0.2304,-0.2264,-0.2252,-0.2221,-0.2196,-0.2202,-0.2153,-0.2144,-0.2141,-0.217,-0.2172,-0.2174,-0.218,-0.2175,0,0,0,0,0,-0.257,-0.2541,-0.2491,-0.2466,-0.2449,-0.2407,-0.2388,-0.2365,-0.2328,-0.2313,-0.2278,-0.2243,-0.2211,-0.219,-0.2157,-0.2127,-0.2115,-0.2117,-0.2119,-0.212,-0.2118,-0.2102,-0.2102,-0.2098,-0.2099,-0.2099,0,0,-0.2578,-0.2542,-0.2526,-0.2472,-0.2443,-0.2414,-0.2395,-0.2365,-0.2344,-0.2308,-0.2273,-0.2247,-0.2205,-0.2173,-0.2156,-0.215,-0.2117,-0.212,-0.2122,-0.2119,-0.2102,-0.2102,-0.2102,-0.2098,-0.2098,-0.2098,0,0,-0.2577,-0.2547,-0.2523,-0.2495,-0.2452,-0.2424,-0.2419,-0.2369,-0.2351,-0.2315,-0.2289,-0.2263,-0.2207,-0.2179,-0.2157,-0.2148,-0.2129,-0.2139,-0.2148,-0.2132,-0.2132,-0.2132,-0.213,-0.2129,-0.2137,-0.2138,-0.2138,0,-0.2592,-0.2548,-0.2513,-0.2485,-0.2463,-0.2431,-0.2407,-0.2381,-0.2329,-0.2315,-0.2309,-0.224,-0.2209,-0.2171,-0.2169,-0.2152,-0.2145,-0.2144,-0.2135,-0.2135,-0.2134,-0.2132,-0.2131,-0.2139,-0.2139,-0.2139,-0.2139,0,-0.2569,-0.2539,-0.2525,-0.2477,-0.2453,-0.2427,-0.2389,-0.2369,-0.2349,-0.2322,-0.2287,-0.225,-0.221,-0.2199,-0.2178,-0.2157,-0.2155,-0.2143,-0.2133,-0.2137,-0.2134,-0.2132,-0.2141,-0.2141,-0.214,-0.214,0,0,-0.2587,-0.2521,-0.2516,-0.2495,-0.2446,-0.2422,-0.2395,-0.2357,-0.2341,-0.2307,-0.2284,-0.2239,-0.2228,-0.2204,-0.218,-0.2166,-0.2163,-0.2156,-0.2154,-0.2159,-0.2139,-0.2149,-0.2148,-0.215,-0.215,-0.215,-0.2143,0,-0.2579,-0.253,-0.2499,-0.2463,-0.2435,-0.2405,-0.2382,-0.235,-0.2325,-0.2298,-0.227,-0.2239,-0.2227,-0.2212,-0.2197,-0.2167,-0.2159,-0.2167,-0.2129,-0.2128,-0.214,-0.2146,-0.2155,-0.2151,-0.2141,-0.2141,-0.2141,0,-0.2564,-0.2531,-0.2493,-0.2448,-0.2435,-0.2415,-0.2378,-0.2353,-0.2316,-0.2299,-0.2273,-0.225,-0.2221,-0.2215,-0.2175,-0.2181,-0.2164,-0.2147,-0.2146,-0.2141,-0.2134,-0.2141,-0.2148,-0.2148,-0.2138,-0.2138,-0.2139,0,-0.2581,-0.2528,-0.2498,-0.248,-0.2428,-0.2415,-0.2392,-0.2355,-0.2335,-0.2303,-0.2289,-0.2254,-0.2235,-0.2209,-0.2177,-0.2174,-0.2141,-0.2131,-0.2126,-0.2127,-0.212,-0.212,-0.2124,-0.2109,-0.2109,-0.2109,-0.2109,0,-0.2576,-0.2554,-0.2505,-0.2487,-0.2461,-0.2427,-0.2402,-0.2377,-0.2346,-0.2322,-0.2294,-0.2273,-0.2232,-0.2206,-0.2181,-0.2153,-0.2144,-0.213,-0.2124,-0.2132,-0.2134,-0.212,-0.212,-0.2109,-0.2109,-0.2109,-0.2109,0,-0.2591,-0.2558,-0.2523,-0.2477,-0.2465,-0.2448,-0.2408,-0.239,-0.2364,-0.2335,-0.2326,-0.2286,-0.2254,-0.222,-0.2176,-0.2159,-0.2133,-0.2123,-0.2145,-0.2141,-0.2139,-0.214,-0.2133,-0.2131,-0.2118,-0.2118,-0.2118,0,-0.259,-0.2572,-0.2524,-0.2507,-0.2485,-0.2457,-0.2436,-0.2402,-0.2382,-0.234,-0.2327,-0.2293,-0.2264,-0.2215,-0.2182,-0.2149,-0.2139,-0.2139,-0.2133,-0.2144,-0.2139,-0.2141,-0.2139,-0.214,-0.2141,-0.2141,-0.2141,0,-0.2591,-0.2576,-0.2547,-0.2514,-0.249,-0.2461,-0.2432,-0.2419,-0.2379,-0.2358,-0.2326,-0.2304,-0.226,-0.2227,-0.2191,-0.2168,-0.2148,-0.2144,-0.2141,-0.2149,-0.2163,-0.2156,-0.215,-0.2143,-0.2143,-0.2143,-0.2143,-0.2143,-0.2598,-0.2581,-0.2545,-0.2515,-0.2489,-0.2463,-0.2444,-0.2416,-0.2389,-0.2351,-0.2333,-0.2301,-0.2266,-0.2215,-0.2193,-0.2168,-0.2162,-0.2157,-0.2156,-0.2156,-0.2159,-0.2168,-0.2161,-0.2161,-0.2161,-0.2161,-0.2161,0,-0.2598,-0.2575,-0.2547,-0.2507,-0.2483,-0.2468,-0.2435,-0.2416,-0.2389,-0.2358,-0.2331,-0.2295,-0.2264,-0.2229,-0.2196,-0.2182,-0.2173,-0.2175,-0.2175,-0.2171,-0.2166,-0.2172,-0.2183,-0.2183,-0.2183,-0.2183,-0.2183,-0.2183,-0.2596,-0.2567,-0.2549,-0.2508,-0.2484,-0.2452,-0.2435,-0.2411,-0.2387,-0.2348,-0.2322,-0.23,-0.2268,-0.2233,-0.2204,-0.2194,-0.2184,-0.2188,-0.2177,-0.2172,-0.2171,-0.2169,-0.2174,-0.2186,-0.2186,-0.2183,-0.2183,-0.2183]},{"header":{"parameterUnit":"m.s-1","parameterCategory":1,"la1":30.2991,"la2":30.254,"lo1":-89.0895,"lo2":-89.0444,"dy":0.0017,"dx":0.0017,"nx":28,"ny":28,"refTime":"2024-04-25T09:00:00:Z","depth":0,"parameterNumber":3,"parameterNumberName":"V-component_of_WINDS"},"data":[0,0,0,0,0,0,0,0,0,0,0,0,0,0,0,0,0,0,0,0,0,0,0,0,0,0,0,0,0,0,0,0,0,0,0,0,0,0,0,0,0,0,0,0,0,0,0,0,0,0,0,0,0,0,0,0,0,0,4.0241,4.0241,0,4.0208,4.0207,4.0207,4.02,4.02,4.0201,4.0201,4.0162,4.0161,4.0159,0,0,0,0,0,0,0,0,0,0,0,0,0,4.0295,4.0294,4.0241,4.0241,4.024,4.0208,4.0207,4.0207,4.02,4.02,4.0201,4.0201,4.0162,4.0161,4.0159,0,0,0,0,0,0,0,0,0,0,0,0,0,4.0268,4.0294,4.0241,4.0233,4.0232,4.0208,4.0207,4.0207,4.02,4.02,4.0201,4.0201,4.0163,4.0161,4.0159,4.0139,0,0,4.0153,4.0152,0,0,0,0,0,0,0,0,4.0269,4.0266,4.0235,4.0234,4.0232,4.0209,4.0212,4.0184,4.02,4.0212,4.0201,4.0201,4.0177,4.0174,4.0166,4.0137,4.0135,4.0153,4.0152,4.0151,4.015,0,0,0,0,0,0,0,4.0271,4.0267,4.0228,4.0234,4.0233,4.023,4.0226,4.0207,4.0192,4.0211,4.0211,4.0207,4.0176,4.0168,4.0165,4.0135,4.0153,4.0151,4.015,4.0149,4.0088,4.0088,0,0,0,0,0,0,4.0275,4.0269,4.0229,4.0227,4.0252,4.0229,4.0225,4.0216,4.0193,4.019,4.0207,4.0207,4.0171,4.0168,4.0164,4.014,4.0151,4.0149,4.0148,4.0089,4.0088,4.0087,0,0,0,0,0,0,4.0276,4.0272,4.023,4.0248,4.0242,4.0227,4.0217,4.0215,4.0207,4.0189,4.0186,4.0201,4.0172,4.0167,4.0146,4.0138,4.0148,4.0147,4.0089,4.0088,4.0088,4.009,0,0,0,0,0,0,4.0278,4.0272,4.0265,4.0248,4.0241,4.0214,4.0217,4.0214,4.0204,4.0204,4.0184,4.0181,4.0172,4.0149,4.0144,4.0136,4.0145,4.009,4.0089,4.0088,4.0091,4.009,4.0089,0,0,0,0,0,4.028,4.0266,4.0265,4.026,4.0232,4.0213,4.0209,4.0201,4.0204,4.0196,4.0185,4.0181,4.014,4.0147,4.0141,4.0132,4.009,4.0089,4.0088,4.0091,4.009,4.0089,0,0,0,0,0,0,4.0281,4.0263,4.0262,4.0242,4.023,4.0212,4.0202,4.0199,4.0184,4.0184,4.0173,4.0168,4.0148,4.0138,4.0146,4.0112,4.0115,4.0113,4.0119,4.0118,4.0117,4.012,4.0143,0,0,0,0,0,4.0279,4.0267,4.0251,4.0235,4.0229,4.0217,4.0208,4.0203,4.0188,4.0182,4.0169,4.0154,4.0138,4.0127,4.0111,4.0089,4.0085,4.0081,4.008,4.0079,4.0077,4.0065,4.0063,4.0084,4.0084,4.0084,0,0,4.0275,4.0264,4.0256,4.0235,4.0225,4.0211,4.0212,4.0197,4.0186,4.0179,4.016,4.015,4.0132,4.0111,4.0101,4.0102,4.007,4.0078,4.0077,4.0076,4.0064,4.0062,4.006,4.0083,4.0083,4.0084,0,0,4.026,4.0251,4.0237,4.0227,4.0212,4.0204,4.02,4.0184,4.0177,4.0158,4.0153,4.0139,4.0111,4.0099,4.0089,4.0071,4.0067,4.0066,4.0061,4.0049,4.0048,4.0046,4.004,4.0038,4.0064,4.0064,4.0064,0,4.0256,4.0237,4.0229,4.0215,4.0206,4.0201,4.0187,4.0177,4.0156,4.015,4.0151,4.0117,4.0105,4.0081,4.0077,4.0069,4.0064,4.0068,4.0049,4.0047,4.0046,4.004,4.0037,4.0064,4.0064,4.0064,4.0064,0,4.0233,4.0219,4.0209,4.0192,4.0182,4.0167,4.0157,4.0147,4.0143,4.0135,4.0115,4.01,4.0081,4.0075,4.007,4.0051,4.0052,4.0051,4.0054,4.0044,4.0038,4.0036,4.0064,4.0064,4.0064,4.0064,0,0,4.0217,4.0197,4.0194,4.0187,4.017,4.0158,4.0144,4.0127,4.0119,4.0105,4.0092,4.0069,4.0069,4.0058,4.0051,4.0042,4.0029,4.0042,4.0042,4.0041,4.0007,4.0008,4.0006,4.0026,4.0026,4.0026,4.0009,0,4.0201,4.0176,4.017,4.0148,4.0135,4.0131,4.0118,4.0106,4.0098,4.0085,4.0075,4.006,4.006,4.0054,4.0044,4.0033,4.0022,4.0034,4.0013,4.0013,4.0018,4.0003,4.0003,3.9988,4.0007,4.0006,4.0006,0,4.0178,4.0166,4.0144,4.013,4.0124,4.0113,4.0098,4.0086,4.0072,4.0067,4.0055,4.005,4.0033,4.0037,4.0014,4.0022,4.0014,4.0007,4.0006,4.0004,4.0009,4.0,3.9983,3.9981,4.0002,4.0002,4.0003,0,4.017,4.0147,4.0132,4.0125,4.0108,4.0101,4.0093,4.008,4.0071,4.0057,4.0051,4.0034,4.0026,4.0013,4.0003,4.0007,3.9981,3.9984,3.9975,3.9976,3.997,3.997,3.9951,3.9964,3.9964,3.9964,3.9964,0,4.0152,4.0138,4.0128,4.0118,4.0103,4.0095,4.008,4.0072,4.006,4.0048,4.0043,4.0031,4.0019,4.0005,3.9997,3.998,3.9975,3.997,3.9968,3.9971,3.9972,3.9965,3.9966,3.9963,3.9964,3.9964,3.9964,0,4.014,4.0132,4.0115,4.0101,4.0097,4.0087,4.0074,4.0064,4.0056,4.0041,4.0037,4.0024,4.0008,3.9998,3.9976,3.9971,3.9952,3.995,3.9957,3.9956,3.9949,3.995,3.9925,3.9921,3.9936,3.9936,3.9936,0,4.0129,4.0119,4.0105,4.0097,4.009,4.0078,4.0069,4.0061,4.0052,4.0036,4.0028,4.0012,3.9999,3.9973,3.9961,3.9945,3.9943,3.9935,3.994,3.9944,3.9943,3.9944,3.9943,3.9934,3.9934,3.9934,3.9934,0,4.0111,4.0108,4.0097,4.0084,4.0075,4.0064,4.0053,4.0046,4.0036,4.0026,4.0011,4.0001,3.9981,3.9965,3.9948,3.9938,3.9934,3.9933,3.993,3.9933,3.9938,3.9935,3.9955,3.9933,3.9933,3.9933,3.9933,3.9934,4.0099,4.0091,4.008,4.0068,4.0059,4.0049,4.004,4.0031,4.0019,4.0003,3.9999,3.9983,3.9969,3.9947,3.9937,3.9924,3.9924,3.992,3.9919,3.9918,3.9919,3.994,3.992,3.992,3.992,3.992,3.992,0,4.0082,4.0075,4.0064,4.005,4.004,4.0039,4.0027,4.0018,4.0005,3.9994,3.9981,3.9964,3.9949,3.9936,3.9921,3.9912,3.991,3.9908,3.9909,3.9907,3.9919,3.9923,3.9911,3.9911,3.9911,3.9911,3.9911,3.9911,4.0071,4.0057,4.0053,4.0034,4.0027,4.0013,4.0006,3.9997,3.9988,3.9969,3.9958,3.995,3.9938,3.9922,3.9908,3.9904,3.9899,3.9897,3.9894,3.9905,3.9906,3.9907,3.9911,3.9896,3.9896,3.9883,3.9883,3.9883]}]]